Weather History for Hayward, WI

Change the Weather History Date:

Monday, February 25, 2013

  Actual Average Record
Temperature  
Mean Temperature 16 °F -  
Max Temperature 32 °F 44 °F 46 °F (1998)
Min Temperature 1 °F 22 °F -22 °F (2003)
Degree Days  
Heating Degree Days 48    
Moisture  
Dew Point 14 °F    
Average Humidity 82    
Maximum Humidity 95    
Minimum Humidity 69    
Precipitation  
Precipitation 0.00 in - - ()
Sea Level Pressure  
Sea Level Pressure 30.10 in    
Wind  
Wind Speed 1 mph (South)    
Max Wind Speed 6 mph    
Max Gust Speed -    
Visibility 7 miles    
Events Fog    
Averages and records for this station are not official NWS values.
T = Trace of Precipitation, MM = Missing Value Source: NWS Daily Summary

Daily Weather History Graph

Daily Weather History Graph

Search for Another Location

Airport:

Trip Planner

Search our weather history database for the weather conditions in past years. The results will help you decide how hot, cold, wet, or windy it might be!

Date:

Astronomy

Feb. 25, 2013 Rise Set
Actual Time 6:51 AM CST 5:46 PM CST
Civil Twilight 6:21 AM CST 6:17 PM CST
Nautical Twilight 5:46 AM CST 6:51 PM CST
Astronomical Twilight 5:11 AM CST 7:26 PM CST
Moon 6:04 PM CST (2/25) 6:19 AM CST (2/25)
Length of Visible Light 11h 56m
Length of Day
10h 55m
Full, 100% of the Moon is Illuminated
Feb 25
Full
Feb 25
Full
Mar 4
Last Quarter
Mar 11
New
Mar 19
First Quarter

Hourly Weather History & Observations

Time (CST) Temp. Windchill Dew Point Humidity Pressure Visibility Wind Dir Wind Speed Gust Speed Precip Events Conditions
12:53 AM 12.9 °F - 9.0 °F 84% 30.14 in 10.0 mi Calm Calm - N/A   Scattered Clouds
1:53 AM 10.0 °F - 7.0 °F 87% 30.15 in 10.0 mi Calm Calm - N/A   Clear
2:53 AM 7.0 °F - 3.0 °F 84% 30.14 in 10.0 mi Calm Calm - N/A   Clear
3:53 AM 6.1 °F - 1.0 °F 80% 30.13 in 10.0 mi Calm Calm - N/A   Clear
4:53 AM 3.9 °F - -0.0 °F 84% 30.14 in 10.0 mi Calm Calm - N/A   Clear
5:53 AM 3.9 °F - -2.0 °F 76% 30.14 in 10.0 mi Calm Calm - N/A   Clear
6:37 AM 1.4 °F - -0.4 °F 92% 30.07 in 10.0 mi Calm Calm - N/A   Mostly Cloudy
6:53 AM 5.0 °F - 1.0 °F 84% 30.15 in 10.0 mi Calm Calm - N/A   Overcast
7:53 AM 12.0 °F - 8.1 °F 84% 30.16 in 10.0 mi Calm Calm - N/A   Overcast
8:53 AM 16.0 °F - 12.0 °F 84% 30.15 in 10.0 mi Calm Calm - N/A   Overcast
9:53 AM 23.0 °F - 19.9 °F 88% 30.14 in 10.0 mi Calm Calm - N/A   Overcast
10:53 AM 27.0 °F - 23.0 °F 85% 30.14 in 9.0 mi Calm Calm - N/A   Overcast
11:53 AM 28.9 °F - 21.9 °F 75% 30.14 in 10.0 mi Calm Calm - N/A   Overcast
12:24 PM 30.2 °F - 21.2 °F 69% 30.07 in 10.0 mi Calm Calm - N/A   Overcast
12:53 PM 30.0 °F 26.5 °F 23.0 °F 75% 30.12 in 10.0 mi SSW 3.5 mph - N/A   Overcast
1:08 PM 30.2 °F 24.3 °F 23.0 °F 75% 30.06 in 9.0 mi South 5.8 mph - N/A   Overcast
1:53 PM 30.9 °F 26.2 °F 24.1 °F 76% 30.11 in 9.0 mi Variable 4.6 mph - N/A   Overcast
2:53 PM 32.0 °F 27.5 °F 25.0 °F 75% 30.11 in 8.0 mi South 4.6 mph - N/A   Overcast
3:53 PM 30.9 °F 26.2 °F 25.0 °F 79% 30.11 in 7.0 mi South 4.6 mph - N/A   Overcast
4:53 PM 30.9 °F 27.5 °F 25.0 °F 79% 30.12 in 8.0 mi South 3.5 mph - N/A   Overcast
5:53 PM 30.9 °F - 24.1 °F 76% 30.12 in 8.0 mi Calm Calm - N/A   Overcast
6:53 PM 30.0 °F 25.2 °F 23.0 °F 75% 30.13 in 9.0 mi SSE 4.6 mph - N/A   Overcast
7:12 PM 26.6 °F 22.6 °F 19.4 °F 74% 30.05 in 9.0 mi SSE 3.5 mph - N/A   Scattered Clouds
8:40 PM 21.2 °F - 17.6 °F 86% 30.05 in 1.8 mi Calm Calm - N/A   Clear
8:51 PM 19.4 °F - 17.6 °F 93% 30.06 in 3.0 mi Calm Calm - N/A   Clear
8:53 PM 19.0 °F - 17.1 °F 92% 30.13 in 3.0 mi Calm Calm - N/A   Clear
8:59 PM 19.4 °F - 15.8 °F 86% 30.06 in 1.8 mi Calm Calm - N/A   Clear
9:08 PM 19.4 °F - 12.2 °F 74% 30.06 in 0.8 mi Calm Calm - N/A   Haze
9:16 PM 17.6 °F - 14.0 °F 86% 30.06 in 1.2 mi Calm Calm - N/A   Partly Cloudy
9:22 PM 17.6 °F - 14.0 °F 86% 30.06 in 3.0 mi Calm Calm - N/A   Partly Cloudy
9:29 PM 17.6 °F - 12.2 °F 79% 30.05 in 1.5 mi Calm Calm - N/A   Partly Cloudy
9:33 PM 15.8 °F - 12.2 °F 86% 30.05 in 0.8 mi Calm Calm - N/A   Partly Cloudy
9:41 PM 15.8 °F - 12.2 °F 86% 30.05 in 0.2 mi Calm Calm - N/A Fog Light Freezing Fog
9:48 PM 15.8 °F - 12.2 °F 86% 30.05 in 1.5 mi Calm Calm - N/A   Mostly Cloudy
9:51 PM 15.8 °F - 12.2 °F 86% 30.05 in 3.0 mi Calm Calm - N/A   Mostly Cloudy
9:53 PM 15.1 °F - 12.0 °F 88% 30.12 in 3.0 mi Calm Calm - N/A   Scattered Clouds
10:53 PM 10.0 °F - 9.0 °F 95% 30.11 in 5.0 mi Calm Calm - N/A   Clear
11:53 PM 8.1 °F - 3.9 °F 83% 30.12 in 7.0 mi Calm Calm - N/A   Clear